EW7833 Weather Reports


time (UTC)temp
F
wind
direction
speed
knots
gust
knots
rain 1hr
in
rain 24hr
in
rain mn
in
humidity
%
barometer
mb
20260510224547 45 265 7.0 10.4 0.00 0.00 0.00 70 1019.8
20260510223047 48 271 8.7 13.0 0.00 0.00 0.00 65 1019.8
20260510221551 51 268 0.9 7.8 0.00 0.00 0.00 51 1019.6
20260510220041 52 271 0.0 2.6 0.00 0.00 0.00 55 1019.4
20260510214538 50 240 0.0 12.2 0.00 0.00 0.00 59 1019.2
20260510213038 48 264 6.1 12.2 0.00 0.00 0.00 60 1019.1
20260510211543 47 273 3.5 13.0 0.00 0.00 0.00 64 1019.1
20260510210034 45 273 7.8 13.0 0.00 0.00 0.00 71 1019.0
20260510204537 45 259 7.8 12.2 0.00 0.00 0.00 67 1019.0
20260510203034 46 261 8.7 13.0 0.00 0.00 0.00 70 1019.0
20260510201532 47 262 7.0 12.2 0.00 0.00 0.00 64 1019.0
20260510200034 47 266 7.8 11.3 0.00 0.00 0.00 65 1018.9
20260510194538 47 270 2.6 9.6 0.00 0.00 0.00 59 1018.9
20260510193030 48 335 0.0 4.3 0.00 0.00 0.00 60 1018.9
20260510191528 46 238 3.5 13.0 0.00 0.00 0.00 68 1018.8
20260510190040 45 264 8.7 16.5 0.00 0.00 0.00 73 1018.6
20260510184520 45 268 7.8 12.2 0.00 0.00 0.00 69 1018.3
20260510183017 45 273 8.7 13.0 0.00 0.00 0.00 66 1018.0
20260510181516 44 284 5.2 12.2 0.00 0.00 0.00 72 1018.0
20260510180015 44 259 7.8 11.3 0.00 0.00 0.00 73 1018.0
20260510174514 44 264 5.2 13.0 0.00 0.00 0.00 74 1017.8
20260510173012 44 281 9.6 13.9 0.00 0.00 0.00 78 1017.6
20260510171517 45 257 7.8 13.0 0.00 0.00 0.00 75 1017.6
20260510170010 44 256 8.7 13.0 0.00 0.00 0.00 76 1017.5
20260510164516 43 272 7.8 14.8 0.00 0.00 0.00 77 1017.5
20260510163007 44 270 10.4 13.9 0.00 0.00 0.00 75 1017.3
20260510161505 44 270 9.6 13.9 0.00 0.00 0.00 72 1017.0
20260510160004 45 247 10.4 14.8 0.00 0.00 0.00 72 1016.9
20260510154501 45 276 9.6 15.6 0.00 0.00 0.00 71 1016.8
20260510153104 45 268 11.3 13.9 0.00 0.00 0.00 68 1016.6
20260510151628 44 262 7.0 12.2 0.00 0.00 0.00 73 1016.3
20260510150100 44 258 8.7 12.2 0.00 0.00 0.00 71 1016.2
20260510144603 44 259 8.7 12.2 0.00 0.00 0.00 66 1016.1
20260510143104 44 262 8.7 12.2 0.00 0.00 0.00 65 1015.9
20260510141555 44 257 8.7 11.3 0.00 0.00 0.00 70 1015.8
20260510140048 44 238 7.8 10.4 0.00 0.00 0.00 77 1015.8
20260510134550 43 266 7.0 12.2 0.00 0.00 0.00 76 1015.7
20260510133045 43 268 6.1 10.4 0.00 0.00 0.00 78 1015.8
20260510131544 42 281 5.2 8.7 0.00 0.00 0.00 78 1015.6
20260510130040 42 266 6.1 8.7 0.00 0.00 0.00 82 1015.6
20260510124542 41 252 6.1 8.7 0.00 0.00 0.00 82 1015.4
20260510123037 41 261 6.1 9.6 0.00 0.00 0.00 84 1015.3
20260510121536 40 227 5.2 9.6 0.00 0.00 0.00 84 1015.1
20260510120035 40 273 4.3 7.0 0.00 0.00 0.00 85 1015.0
20260510114536 40 269 3.5 7.0 0.00 0.00 0.00 86 1014.8
20260510113030 39 264 3.5 6.1 0.00 0.00 0.00 86 1014.7
20260510111530 39 266 3.5 5.2 0.00 0.00 0.00 87 1014.5
20260510110029 39 264 3.5 5.2 0.00 0.00 0.00 88 1014.3
20260510104523 39 274 3.5 5.2 0.00 0.00 0.00 88 1014.0
20260510103026 39 271 3.5 5.2 0.00 0.00 0.00 87 1013.7
20260510101518 39 274 4.3 5.2 0.00 0.00 0.00 87 1013.3
20260510100029 39 253 4.3 6.1 0.00 0.00 0.00 87 1013.3
20260510094517 39 278 4.3 7.0 0.00 0.00 0.00 87 1013.1
20260510093013 40 269 4.3 7.0 0.00 0.00 0.00 86 1013.0
20260510091511 40 266 3.5 7.8 0.00 0.00 0.00 86 1012.7
20260510090011 40 265 6.1 7.8 0.00 0.00 0.00 87 1012.5
20260510084508 40 267 5.2 8.7 0.00 0.00 0.00 87 1012.5
20260510083018 40 262 6.1 8.7 0.00 0.00 0.00 85 1012.4
20260510081506 40 244 7.8 10.4 0.00 0.00 0.00 85 1012.2
20260510080003 41 278 7.8 10.4 0.00 0.00 0.00 80 1011.9
20260510074558 41 265 4.3 7.0 0.00 0.00 0.00 79 1011.7
20260510073104 41 264 4.3 6.1 0.00 0.00 0.00 77 1011.5
20260510071555 41 255 4.3 6.1 0.00 0.00 0.00 78 1011.3
20260510070055 42 273 3.5 7.8 0.00 0.00 0.00 75 1011.1
20260510064553 41 260 3.5 8.7 0.00 0.00 0.00 79 1011.0
20260510063050 41 275 2.6 5.2 0.00 0.00 0.00 72 1011.0
20260510061545 39 242 0.0 0.9 0.00 0.00 0.00 74 1010.9
20260510060046 39 129 0.0 0.9 0.00 0.00 0.00 76 1010.8
20260510054542 39 53 0.0 0.0 0.00 0.00 0.00 74 1010.7
20260510053039 40 53 0.0 0.9 0.00 0.00 0.00 69 1010.7
20260510051540 41 49 0.0 0.9 0.00 0.00 0.00 69 1010.5
20260510050040 41 21 0.0 0.9 0.00 0.00 0.00 68 1010.4
20260510044534 41 354 0.0 1.7 0.00 0.00 0.00 66 1010.3
20260510043029 42 6 0.0 2.6 0.00 0.00 0.00 65 1010.1
20260510041526 42 30 0.0 6.1 0.00 0.00 0.00 66 1009.8
20260510040023 42 4 0.0 3.5 0.00 0.00 0.00 65 1009.3
20260510034521 42 330 0.9 2.6 0.00 0.00 0.00 64 1009.4
20260510033019 43 162 0.0 0.9 0.00 0.00 0.00 64 1009.3
20260510031519 43 21 0.0 3.5 0.00 0.00 0.00 61 1009.4
20260510030018 43 15 0.0 1.7 0.00 0.00 0.00 62 1009.3
20260510024518 43 36 0.0 3.5 0.00 0.00 0.00 64 1009.1
20260510023016 43 360 0.0 1.7 0.00 0.00 0.00 66 1009.2
20260510021517 44 326 0.0 4.3 0.00 0.00 0.00 70 1009.1
20260510020012 44 246 0.0 6.1 0.00 0.00 0.00 67 1008.8
20260510014509 44 205 0.0 3.5 0.00 0.00 0.00 67 1008.5
20260510013009 44 198 0.0 2.6 0.00 0.00 0.00 66 1008.3
20260510011509 45 236 0.0 2.6 0.00 0.00 0.00 67 1008.0
20260510010003 45 6 0.0 1.7 0.00 0.00 0.00 66 1007.7
20260510004502 46 11 0.0 3.5 0.00 0.00 0.00 65 1007.5
20260510003058 47 328 0.0 1.7 0.00 0.00 0.00 61 1007.1
20260510001556 48 23 0.9 5.2 0.00 0.00 0.00 60 1006.8
20260510000105 48 124 0.9 5.2 0.00 0.00 0.00 62 1006.4
20260509234559 49 354 0.0 5.2 0.00 0.00 0.00 63 1005.9
20260509233050 49 11 1.7 6.1 0.00 0.00 0.00 60 1005.6
20260509231548 52 331 0.0 5.2 0.00 0.00 0.00 57 1005.2
20260509230045 52 344 1.7 6.1 0.00 0.00 0.00 54 1004.9